This is the latest recevied weather packets stored in our database for station/object WB3EGK. If no packets are shown the sender has not sent any weather packets the latest 10 day(s).
| Time | Temp. | Humidity | Pressure | Rain* | Wind** | Luminosity | Snow |
|---|---|---|---|---|---|---|---|
| 1777667702 | 3.89° C | 1% | 1009.6 hPa | 0 mm | - | 98 W/m² | - |
| 1777667400 | 3.89° C | 1% | 1009.6 hPa | 1.27 mm | - | 82 W/m² | - |
| 1777667096 | 3.89° C | 1% | 1009.7 hPa | 1.27 mm | - | 121 W/m² | - |
| 1777666793 | 3.89° C | 1% | 1009.4 hPa | 0 mm | - | 112 W/m² | - |
| 1777666490 | 3.89° C | 1% | 1009.4 hPa | 0 mm | - | 158 W/m² | - |
| 1777666187 | 3.89° C | 1% | 1009.4 hPa | 0 mm | - | 194 W/m² | - |
| 1777665885 | 4.44° C | 1% | 1009.3 hPa | 1.78 mm | - | 218 W/m² | - |
| 1777665581 | 4.44° C | 1% | 1009.5 hPa | 1.78 mm | - | 148 W/m² | - |
| 1777665278 | 4.44° C | 1% | 1009.5 hPa | 0 mm | - | 162 W/m² | - |
| 1777664974 | 4.44° C | 1% | 1009.6 hPa | 0 mm | - | 190 W/m² | - |
| 1777664670 | 3.89° C | 1% | 1009.6 hPa | 1.27 mm | - | 140 W/m² | - |
| 1777664366 | 4.44° C | 1% | 1009.7 hPa | 1.27 mm | - | 101 W/m² | - |
| 1777664064 | 4.44° C | 1% | 1009.7 hPa | 0 mm | - | 121 W/m² | - |
| 1777663762 | 4.44° C | 1% | 1009.4 hPa | 1.78 mm | - | 184 W/m² | - |
| 1777663459 | 5° C | 1% | 1009.4 hPa | 1.78 mm | - | 119 W/m² | - |
| 1777663156 | 5° C | 1% | 1009.3 hPa | 1.27 mm | - | 116 W/m² | - |
| 1777662853 | 5° C | 1% | 1009.4 hPa | 1.27 mm | - | 108 W/m² | - |
| 1777662550 | 5° C | 1% | 1009.3 hPa | 0 mm | - | 48 W/m² | - |
| 1777662246 | 5° C | 1% | 1009.5 hPa | 1.78 mm | - | 77 W/m² | - |
| 1777661941 | 5° C | 1% | 1009.4 hPa | 1.27 mm | - | 198 W/m² | - |
| 1777661637 | 5° C | 1% | 1009.4 hPa | 1.27 mm | - | 268 W/m² | - |
| 1777661333 | 5° C | 1% | 1009.1 hPa | 0 mm | - | 220 W/m² | - |
| 1777661030 | 5° C | 1% | 1009.4 hPa | 1.78 mm | - | 193 W/m² | - |
| 1777660725 | 5° C | 1% | 1009.4 hPa | 1.78 mm | - | 203 W/m² | - |
| 1777660423 | 5° C | 1% | 1009.3 hPa | 0 mm | - | 173 W/m² | - |
* Rain latest hour (hover to see other rain measurements)
** Current wind speed in m/s (hover to see current wind gust speed)